Home   Weather   Centennial   Past weeks

Flag for USA Past Weather in Centennial, Colorado, USA — Yesterday and Last 2 Weeks

Now
27 °F

Light snow. Ice fog.


Feels Like: 16 °F
Forecast: 25 / 32 °F
Wind: 13 mph from Northeast

Location: Centennial Airport

Current Time: Apr 29, 2017 at 5:53:33 am

Latest Report: Apr 29, 2017 at 4:53 am


Visibility: 6 mi

Pressure: 30.13 "Hg (24.06 "Hg at 1781m altitude)

Humidity: 96%

Dew Point: 26 °F

Location of CentennialLocation

Past Weather in Centennial — Graph

°F

Centennial Temperature Yesterday

Maximum temperature yesterday: 51 °F (at 12:53 pm)
Minimum temperature yesterday: 28 °F (at 10:53 pm)
Average temperature yesterday: 38 °F

High & Low Weather Summary for the Past Weeks

 TemperatureHumidityPressure
High78 °F (Apr 14, 1:53 pm)100% (Apr 22, 5:39 am)30.34 "Hg (Apr 22, 5:39 am)
Low27 °F (Apr 29, 12:53 am)7% (Apr 14, 1:53 pm)29.42 "Hg (Apr 24, 6:53 pm)
Average50 °F54%29.83 "Hg
* Reported Apr 14 3:53 am — Apr 29 3:53 am, Centennial, Weather by CustomWeather, © 2017

Note: Actual official high and low records may vary slightly from our data, if they occured in-between our weather recording intervals... More about our weather records

Advertising

Centennial Weather History for the Previous 24 Hours

Scroll right to see more
 ConditionsComfort  
Time TempWeatherWind HumidityBarometerVisibility
3:53 am
Sat, Apr 29
27 °FLight snow. Ice fog.9 mph96%30.10 "Hg4 mi
2:53 am27 °FLight snow. Ice fog.14 mph96%30.09 "Hg5 mi
2:28 am27 °FLight snow. Ice fog.12 mph100%30.06 "Hg3 mi
12:53 am27 °FSnow. Ice fog.9 mph100%30.10 "Hg1 mi
11:53 pm
Fri, Apr 28
28 °FSnow. Ice fog.15 mph100%30.07 "Hg1 mi
10:53 pm28 °FSnow. Ice fog.14 mph100%30.09 "Hg1 mi
9:53 pm29 °FSnow. Ice fog.12 mph100%30.06 "Hg1 mi
8:53 pm30 °FSnow. Ice fog.15 mph100%30.01 "Hg1 mi
8:34 pm31 °FSnow. Ice fog.15 mph100%29.96 "Hg1 mi
7:53 pm32 °FSnow. Ice fog.10 mph100%29.96 "Hg1 mi
6:53 pm32 °FSnow. Fog.8 mph100%29.94 "Hg1 mi
5:53 pm33 °FLight snow. Fog.8 mph100%29.90 "Hg1 mi
5:25 pm34 °FLight snow. Fog.13 mph97%29.83 "Hg1 mi
4:58 pm35 °FLight snow. Fog.12 mph92%29.81 "Hg2 mi
4:15 pm40 °FThunderstorms. Cloudy.20 mph77%29.77 "Hg10 mi
3:53 pm47 °FMore clouds than sun.12 mph32%29.73 "Hg10 mi
2:53 pm48 °FPartly sunny.15 mph34%29.68 "Hg10 mi
1:53 pm50 °FPartly sunny.13 mph21%29.62 "Hg10 mi
12:53 pm51 °FBroken clouds.6 mph20%29.61 "Hg10 mi
11:53 am50 °FBroken clouds.3 mph22%29.61 "Hg10 mi
10:53 am48 °FScattered clouds.12 mph22%29.59 "Hg10 mi
9:53 am46 °FPassing clouds.9 mph23%29.62 "Hg10 mi
8:53 am43 °FPassing clouds.7 mph24%29.63 "Hg10 mi
7:53 am41 °FPassing clouds.12 mph33%29.64 "Hg10 mi
6:53 am33 °FSunny.6 mph58%29.65 "Hg10 mi
5:53 am33 °FClear.6 mph49%29.62 "Hg10 mi
Weather by CustomWeather, © 2017

See weather overviewHow to use our weather pages